Content
SEND FEEDBACK

Daily
Averages
Monthly
Summary
France

TOULOUSE, FRANCE


Home > Europe > France
Elevation: 538 feet     Latitude: 43 33N     Longitude: 001 23E

WEATHER
 
SELECT A DAY
Number of Records: 277,573;   Date Range: 7/1/96 - 4/21/13
 
SHARE

PRINT THIS DATA

[ ← Previous Day ]
WEATHER ALMANAC - MARCH 26, 2013
[ Next Day → ]
[ °C ]   °F
Weather ElementAverageHighLow
Temperature52 °F59 °F (3:30 pm)48.2 °F (12:30 am)
Dewpoint44.9 °F47 °F (1:00 am)42.8 °F (2:30 pm)
Humidity77.4 %93 % (12:30 am)53 % (7:00 pm)
Barometer29.64 in29.68 in (9:00 am)29.59 in (11:00 pm)
Wind Speed6.5 mph10.4 mph (9:00 am)
Weather ElementAverage
Visibility6.2 mi
Wind DirectionWSW (250 °)

Weather ElementTotal
Precipitation---
Heating Degree Days11.4 (Base 65)
Growing Degree Days3.6 (Base 50)
Averaged from 51 records on March 26, 2013
WEATHER CONDITIONS BREAKOUT
WIND DIRECTION BREAKOUT
WEATHER BY HOUR - MARCH 26, 2013
[ °C ]   °F
Local TimeTemperatureDewpointHumidityBarometerVisibilityWind DirectionWind SpeedGust SpeedPrecipitationEventsConditions
12:30 AM48.2 °F46.4 °F93 %29.62 in6.2 miNW (320°)3.5 mphRainLight Rain
1:00 AM49.0 °F47.0 °F88 %29.63 in11.0 miWest (270°)5.8 mphRainLight Rain
1:00 AM48.2 °F46.4 °F93 %29.62 in6.2 miWest (270°)5.8 mphRainLight Rain
1:30 AM48.2 °F46.4 °F93 %29.62 in6.2 miVariable2.3 mphRainLight Rain
2:00 AM48.2 °F46.4 °F93 %29.62 in6.2 miWSW (250°)3.5 mphMostly Cloudy
2:30 AM48.2 °F46.4 °F93 %29.62 in6.2 miWNW (290°)4.6 mphRainLight Rain
3:00 AM48.2 °F46.4 °F93 %29.62 in6.2 miWest (270°)5.8 mphMostly Cloudy
3:30 AM48.2 °F46.4 °F93 %29.62 in6.2 miWest (270°)5.8 mphOvercast
4:00 AM48.2 °F46.4 °F93 %29.62 in6.2 miWest (260°)9.2 mphOvercast
4:30 AM48.2 °F46.4 °F93 %29.62 in6.2 miWest (270°)5.8 mphOvercast
5:00 AM48.2 °F46.4 °F93 %29.62 in6.2 miWNW (290°)5.8 mphOvercast
5:30 AM48.2 °F46.4 °F93 %29.62 in6.2 miWNW (290°)6.9 mphMostly Cloudy
6:00 AM48.2 °F46.4 °F93 %29.62 in6.2 miWest (280°)8.1 mphRainLight Rain
6:30 AM48.2 °F46.4 °F93 %29.65 in6.2 miWNW (290°)8.1 mphMostly Cloudy
7:00 AM49.0 °F47.0 °F88 %29.67 in9.0 miWNW (290°)6.9 mphClear
7:00 AM48.2 °F46.4 °F93 %29.65 in6.2 miWNW (290°)6.9 mphMostly Cloudy
7:30 AM48.2 °F46.4 °F93 %29.65 in4.3 miWest (280°)9.2 mphLight Drizzle
8:00 AM48.2 °F46.4 °F93 %29.65 in3.7 miWest (280°)9.2 mphOvercast
8:30 AM50.0 °F46.4 °F87 %29.65 in3.1 miWest (280°)9.2 mphMostly Cloudy
9:00 AM50.0 °F46.4 °F87 %29.68 in4.3 miWest (270°)10.4 mphMostly Cloudy
9:30 AM50.0 °F46.4 °F87 %29.68 in4.3 miWest (280°)10.4 mphMostly Cloudy
10:00 AM50.0 °F46.4 °F87 %29.68 in4.3 miWNW (290°)10.4 mphMostly Cloudy
10:30 AM51.8 °F46.4 °F82 %29.68 in4.3 miWNW (300°)8.1 mphMostly Cloudy
11:00 AM51.8 °F46.4 °F82 %29.68 in5.0 miWNW (290°)9.2 mphOvercast
11:30 AM53.6 °F46.4 °F77 %29.68 in6.2 miNW (310°)8.1 mphMostly Cloudy
12:00 PM53.6 °F44.6 °F72 %29.68 in6.2 miWNW (290°)8.1 mphMostly Cloudy
12:30 PM53.6 °F44.6 °F72 %29.68 in6.2 miWNW (290°)8.1 mphMostly Cloudy
1:00 PM55.0 °F44.0 °F58 %29.68 in7.0 miWest (280°)8.1 mphClear
1:00 PM55.4 °F44.6 °F67 %29.68 in6.2 miWest (280°)8.1 mphMostly Cloudy
1:30 PM57.2 °F44.6 °F63 %29.65 in6.2 miWest (270°)10.4 mphMostly Cloudy
2:00 PM57.2 °F46.4 °F67 %29.65 in6.2 miWest (260°)8.1 mphMostly Cloudy
2:30 PM57.2 °F42.8 °F59 %29.65 in6.2 miWNW (290°)6.9 mphOvercast
3:00 PM57.2 °F44.6 °F63 %29.65 in6.2 miWest (260°)8.1 mphMostly Cloudy
3:30 PM59.0 °F42.8 °F55 %29.65 in6.2 miWest (280°)9.2 mphScattered Clouds
4:00 PM59.0 °F44.6 °F59 %29.62 in6.2 miNW (310°)9.2 mphScattered Clouds
4:30 PM59.0 °F42.8 °F55 %29.62 in6.2 miNW (320°)8.1 mphMostly Cloudy
5:00 PM57.2 °F42.8 °F59 %29.62 in6.2 miNW (320°)8.1 mphMostly Cloudy
5:30 PM57.2 °F42.8 °F59 %29.62 in6.2 miWNW (300°)6.9 mphMostly Cloudy
6:00 PM57.2 °F42.8 °F59 %29.62 in6.2 miWest (280°)8.1 mphPartly Cloudy
6:30 PM55.4 °F42.8 °F63 %29.62 in6.2 miWest (270°)6.9 mphMostly Cloudy
7:00 PM55.0 °F43.0 °F53 %29.63 in12.0 miWest (280°)4.6 mphClear
7:00 PM55.4 °F42.8 °F63 %29.62 in6.2 miWest (280°)4.6 mphMostly Cloudy
7:30 PM53.6 °F42.8 °F67 %29.62 in6.2 miWest (270°)4.6 mph
8:00 PM53.6 °F42.8 °F67 %29.62 in6.2 miWest (270°)4.6 mphOvercast
8:30 PM53.6 °F42.8 °F67 %29.62 in6.2 miWest (280°)4.6 mph
9:00 PM51.8 °F42.8 °F71 %29.62 in6.2 miVariable2.3 mph
9:30 PM51.8 °F42.8 °F71 %29.62 in6.2 miWSW (250°)2.3 mph
10:00 PM50.0 °F42.8 °F76 %29.62 in6.2 miCalm
10:30 PM50.0 °F42.8 °F76 %29.62 in6.2 miCalm
11:00 PM50.0 °F42.8 °F76 %29.59 in6.2 miNE (40°)1.2 mph
11:30 PM50.0 °F42.8 °F76 %29.59 in6.2 miCalm
Hourly data recorded from LFBF, located miles away from Toulouse, France







STORIES FROM OUR PARTNERS